Content
SEND FEEDBACK

Daily
Averages
Monthly
Summary
Japan

FUKUOKA, JAPAN


Home > Asia > Japan
Elevation: 39 feet     Latitude: 33 35N     Longitude: 130 27E

WEATHER
 
SELECT A DAY
Number of Records: 313,131;   Date Range: 7/1/96 - 7/27/14
 
SHARE

PRINT THIS DATA

[ ← Previous Day ]
WEATHER ALMANAC - FEBRUARY 13, 2013
[ Next Day → ]
[ °C ]   °F
Weather ElementAverageHighLow
Temperature42.4 °F46.4 °F (11:30 am)37.4 °F (10:30 pm)
Dewpoint26.2 °F32 °F (12:30 am)19.4 °F (4:30 am)
Humidity53.8 %81 % (11:30 pm)40 % (12:30 pm)
Barometer30.24 in30.30 in (9:30 am)30.18 in (12:30 am)
Wind Speed11.6 mph19.6 mph (12:30 am)
Weather ElementAverage
Visibility6.1 mi
Wind DirectionWSW (236.5 °)

Weather ElementTotal
Precipitation---
Heating Degree Days23.1 (Base 65)
Averaged from 48 records on February 13, 2013
WEATHER CONDITIONS BREAKOUT
WIND DIRECTION BREAKOUT
WEATHER BY HOUR - FEBRUARY 13, 2013
[ °C ]   °F
Local TimeTemperatureDewpointHumidityBarometerVisibilityWind DirectionWind SpeedGust SpeedPrecipitationEventsConditions
12:30 AM42.8 °F32.0 °F66 %30.18 in5.6 miNNW (340°)19.6 mphMostly Cloudy
1:00 AM41.0 °F32.0 °F70 %30.18 in5.6 miNNW (330°)18.4 mphMostly Cloudy
1:30 AM42.8 °F32.0 °F66 %30.18 in5.6 miNNW (330°)13.8 mphMostly Cloudy
2:00 AM41.0 °F28.4 °F61 %30.18 in5.6 miNNW (340°)18.4 mphMostly Cloudy
2:30 AM41.0 °F26.6 °F57 %30.18 in5.6 miNNW (340°)18.4 mphMostly Cloudy
3:00 AM41.0 °F24.8 °F53 %30.21 in6.2 miNNW (340°)15.0 mphScattered Clouds
3:30 AM41.0 °F23.0 °F49 %30.21 in6.2 miNNW (340°)13.8 mphPartly Cloudy
4:00 AM41.0 °F21.2 °F45 %30.21 in6.2 miNNW (340°)11.5 mphPartly Cloudy
4:30 AM41.0 °F19.4 °F42 %30.21 in6.2 miNNW (340°)15.0 mphPartly Cloudy
5:00 AM39.2 °F21.2 °F49 %30.21 in6.2 miNorth (350°)16.1 mphPartly Cloudy
5:30 AM39.2 °F19.4 °F45 %30.21 in6.2 miNorth (350°)12.7 mphPartly Cloudy
6:00 AM39.2 °F19.4 °F45 %30.21 in6.2 miNorth (350°)15.0 mphPartly Cloudy
6:30 AM39.2 °F21.2 °F49 %30.24 in6.2 miNorth (350°)12.7 mphPartly Cloudy
7:00 AM39.2 °F23.0 °F52 %30.24 in6.2 miNNW (340°)13.8 mphScattered Clouds
7:30 AM39.2 °F23.0 °F52 %30.24 in6.2 miNorth (350°)13.8 mphScattered Clouds
8:00 AM39.2 °F23.0 °F52 %30.27 in6.2 miNorth (350°)12.7 mphMostly Cloudy
8:30 AM41.0 °F24.8 °F53 %30.24 in6.2 miNorth (10°)9.2 mphMostly Cloudy
9:00 AM41.0 °F23.0 °F49 %30.27 in6.2 miNorth (10°)15.0 mphScattered Clouds
9:30 AM41.0 °F24.8 °F53 %30.30 in6.2 miNorth (350°)13.8 mphScattered Clouds
10:00 AM41.0 °F24.8 °F53 %30.30 in6.2 miNorth (350°)13.8 mphMostly Cloudy
10:30 AM42.8 °F24.8 °F49 %30.30 in6.2 miNorth (10°)13.8 mphMostly Cloudy
11:00 AM42.8 °F26.6 °F53 %30.30 in6.2 miNNW (340°)9.2 mphMostly Cloudy
11:30 AM46.4 °F24.8 °F43 %30.27 in6.2 miNNW (340°)12.7 mphScattered Clouds
12:00 PM46.4 °F24.8 °F43 %30.27 in6.2 miNNE (30°)10.4 mphPartly Cloudy
12:30 PM46.4 °F23.0 °F40 %30.27 in6.2 miNNE (30°)12.7 mphPartly Cloudy
1:00 PM46.4 °F24.8 °F43 %30.27 in6.2 miNNW (340°)12.7 mphPartly Cloudy
1:30 PM46.4 °F24.8 °F43 %30.24 in6.2 miNorth (360°)9.2 mphPartly Cloudy
2:00 PM46.4 °F24.8 °F43 %30.24 in6.2 miNNE (20°)10.4 mphPartly Cloudy
2:19 PM46.4 °F24.8 °F43 %30.24 in6.2 miNW (320°)13.8 mphPartly Cloudy
2:30 PM46.4 °F26.6 °F46 %30.24 in6.2 miNorth (350°)13.8 mphPartly Cloudy
3:00 PM46.4 °F26.6 °F46 %30.24 in6.2 miNNW (330°)13.8 mphPartly Cloudy
3:30 PM46.4 °F24.8 °F43 %30.24 in6.2 miNNW (340°)12.7 mphPartly Cloudy
4:00 PM46.4 °F26.6 °F46 %30.21 in6.2 miNW (320°)13.8 mphPartly Cloudy
4:30 PM46.4 °F28.4 °F50 %30.24 in6.2 miNNW (330°)12.7 mphPartly Cloudy
5:00 PM46.4 °F26.6 °F46 %30.21 in6.2 miNNW (340°)10.4 mphPartly Cloudy
5:30 PM44.6 °F26.6 °F49 %30.24 in6.2 miNorth (360°)10.4 mphPartly Cloudy
6:00 PM44.6 °F28.4 °F53 %30.24 in6.2 miNorth (350°)12.7 mphPartly Cloudy
6:30 PM42.8 °F28.4 °F57 %30.27 inNorth (10°)9.2 mphClear
7:00 PM42.8 °F30.2 °F61 %30.27 inNNE (20°)8.1 mphClear
7:30 PM42.8 °F30.2 °F61 %30.30 inNNE (20°)5.8 mphClear
8:00 PM41.0 °F30.2 °F65 %30.30 inNNE (20°)5.8 mphClear
8:30 PM41.0 °F30.2 °F65 %30.27 inNNE (30°)4.6 mphClear
9:00 PM41.0 °F30.2 °F65 %30.27 inNE (50°)3.5 mphClear
9:30 PM41.0 °F30.2 °F65 %30.27 inVariable3.5 mphClear
10:00 PM39.2 °F30.2 °F70 %30.24 inNE (50°)3.5 mphClear
10:30 PM37.4 °F30.2 °F75 %30.24 inENE (70°)3.5 mphClear
11:00 PM39.2 °F32.0 °F75 %30.27 inSW (230°)3.5 mphClear
11:30 PM37.4 °F32.0 °F81 %30.27 inSE (140°)6.9 mphClear
Hourly data recorded from RJFF, located miles away from Fukuoka, Japan







STORIES FROM OUR PARTNERS